[[{"header":{"parameterUnit":"m.s-1","parameterCategory":1,"la1":30.2991,"la2":30.254,"lo1":-89.0895,"lo2":-89.0444,"dy":0.0017,"dx":0.0017,"nx":28,"ny":28,"refTime":"2024-04-01T21:00:00:Z","depth":0,"parameterNumber":2,"parameterNumberName":"U-component_of_WINDS"},"data":[0,0,0,0,0,0,0,0,0,0,0,0,0,0,0,0,0,0,0,0,0,0,0,0,0,0,0,0,0,0,0,0,0,0,0,0,0,0,0,0,0,0,0,0,0,0,0,0,0,0,0,0,0,0,0,0,0,0,-0.0159,-0.0159,0,-0.0134,-0.0134,-0.0134,-0.013,-0.013,-0.013,-0.0131,-0.0108,-0.0107,-0.0107,0,0,0,0,0,0,0,0,0,0,0,0,0,-0.0206,-0.0205,-0.0159,-0.0159,-0.0158,-0.0134,-0.0134,-0.0134,-0.013,-0.013,-0.013,-0.0131,-0.0108,-0.0107,-0.0107,0,0,0,0,0,0,0,0,0,0,0,0,0,-0.0184,-0.0205,-0.0159,-0.0154,-0.0153,-0.0134,-0.0134,-0.0134,-0.013,-0.013,-0.0131,-0.0131,-0.0109,-0.0108,-0.0106,-0.0093,0,0,-0.0103,-0.0102,0,0,0,0,0,0,0,0,-0.0185,-0.0182,-0.0155,-0.0154,-0.0153,-0.0135,-0.0142,-0.012,-0.013,-0.0139,-0.0131,-0.0131,-0.0117,-0.0115,-0.011,-0.0092,-0.0091,-0.0103,-0.0102,-0.0101,-0.0101,0,0,0,0,0,0,0,-0.0187,-0.0183,-0.0149,-0.0154,-0.0153,-0.0153,-0.0151,-0.0138,-0.0127,-0.0138,-0.0138,-0.0135,-0.0117,-0.0111,-0.011,-0.009,-0.0103,-0.0102,-0.0101,-0.01,-0.006,-0.0059,0,0,0,0,0,0,-0.0189,-0.0185,-0.015,-0.0149,-0.017,-0.0152,-0.0149,-0.0141,-0.0127,-0.0125,-0.0134,-0.0135,-0.0113,-0.0111,-0.0109,-0.0092,-0.0101,-0.01,-0.01,-0.006,-0.006,-0.0059,0,0,0,0,0,0,-0.019,-0.0186,-0.0151,-0.0166,-0.0162,-0.0151,-0.0142,-0.014,-0.0135,-0.0124,-0.0122,-0.0131,-0.0113,-0.011,-0.0097,-0.0091,-0.01,-0.0099,-0.006,-0.006,-0.0059,-0.0057,0,0,0,0,0,0,-0.0191,-0.0186,-0.018,-0.0166,-0.0161,-0.0138,-0.0141,-0.0139,-0.0132,-0.0132,-0.012,-0.0118,-0.0113,-0.0098,-0.0095,-0.0089,-0.0098,-0.0061,-0.006,-0.006,-0.0058,-0.0057,-0.0056,0,0,0,0,0,-0.0193,-0.0181,-0.018,-0.0176,-0.0153,-0.0138,-0.0135,-0.0129,-0.0132,-0.0126,-0.0119,-0.0119,-0.0092,-0.0097,-0.0094,-0.0087,-0.0061,-0.006,-0.006,-0.0058,-0.0057,-0.0056,0,0,0,0,0,0,-0.0195,-0.0179,-0.0177,-0.0161,-0.0151,-0.0137,-0.013,-0.0128,-0.0118,-0.0118,-0.0112,-0.0109,-0.0096,-0.009,-0.0096,-0.0073,-0.0077,-0.0075,-0.0077,-0.0076,-0.0075,-0.0077,-0.0097,0,0,0,0,0,-0.0194,-0.0182,-0.0169,-0.0155,-0.015,-0.0141,-0.0134,-0.013,-0.012,-0.0116,-0.0108,-0.0099,-0.0089,-0.0082,-0.0072,-0.0057,-0.0055,-0.0051,-0.005,-0.005,-0.0048,-0.004,-0.0039,-0.0056,-0.0057,-0.0057,0,0,-0.0191,-0.0181,-0.0174,-0.0156,-0.0147,-0.0136,-0.0137,-0.0125,-0.0117,-0.0115,-0.0101,-0.0095,-0.0084,-0.007,-0.0063,-0.0065,-0.0043,-0.0049,-0.0048,-0.0047,-0.0039,-0.0038,-0.0036,-0.0056,-0.0056,-0.0056,0,0,-0.018,-0.017,-0.0158,-0.015,-0.0137,-0.0131,-0.0128,-0.0115,-0.011,-0.0096,-0.0094,-0.0085,-0.0067,-0.0059,-0.0053,-0.004,-0.0039,-0.0037,-0.0031,-0.0024,-0.0022,-0.0021,-0.0016,-0.0015,-0.0035,-0.0035,-0.0035,0,-0.0178,-0.0159,-0.0152,-0.014,-0.0132,-0.0129,-0.0117,-0.0109,-0.0094,-0.009,-0.0091,-0.0069,-0.0062,-0.0046,-0.0042,-0.0037,-0.0034,-0.0038,-0.0023,-0.0022,-0.002,-0.0016,-0.0014,-0.0035,-0.0035,-0.0035,-0.0035,0,-0.0158,-0.0145,-0.0137,-0.0122,-0.0113,-0.0101,-0.0093,-0.0086,-0.0083,-0.0077,-0.0063,-0.0054,-0.0042,-0.0038,-0.0035,-0.0022,-0.0023,-0.0024,-0.0028,-0.0019,-0.0014,-0.0012,-0.0035,-0.0035,-0.0035,-0.0035,0,0,-0.0147,-0.0128,-0.0125,-0.0118,-0.0103,-0.0094,-0.0083,-0.007,-0.0064,-0.0054,-0.0044,-0.0029,-0.003,-0.0023,-0.002,-0.0013,-0.0003,-0.0015,-0.0015,-0.0013,0.0012,0.0013,0.0015,-0.0002,-0.0002,-0.0002,0.0012,0,-0.0134,-0.0112,-0.0105,-0.0087,-0.0076,-0.0072,-0.0062,-0.0053,-0.0047,-0.0037,-0.0032,-0.0021,-0.0023,-0.0018,-0.0012,-0.0005,0.0002,-0.0006,0.0006,0.0006,0.0004,0.0018,0.0018,0.003,0.0013,0.0014,0.0014,0,-0.0116,-0.0105,-0.0085,-0.0072,-0.0067,-0.0058,-0.0046,-0.0036,-0.0026,-0.0023,-0.0015,-0.0012,-0.0,-0.0005,0.0011,0.0005,0.001,0.0014,0.0014,0.0016,0.0011,0.0019,0.0034,0.0036,0.0017,0.0016,0.0016,0,-0.011,-0.009,-0.0076,-0.007,-0.0054,-0.0048,-0.0042,-0.0031,-0.0024,-0.0014,-0.001,0.0001,0.0007,0.0015,0.002,0.0017,0.0035,0.0031,0.0038,0.0038,0.0042,0.0041,0.0058,0.0045,0.0045,0.0045,0.0045,0,-0.0097,-0.0085,-0.0073,-0.0064,-0.0051,-0.0044,-0.0031,-0.0025,-0.0016,-0.0006,-0.0003,0.0005,0.0012,0.0021,0.0025,0.0037,0.004,0.0043,0.0044,0.0043,0.0042,0.0046,0.0045,0.0045,0.0045,0.0045,0.0045,0,-0.0088,-0.0079,-0.0063,-0.005,-0.0046,-0.0037,-0.0026,-0.0018,-0.0012,-0.0,0.0003,0.0012,0.0023,0.0029,0.0043,0.0045,0.0059,0.0059,0.0056,0.0056,0.0062,0.0062,0.0082,0.0085,0.007,0.007,0.007,0,-0.008,-0.007,-0.0055,-0.0048,-0.0041,-0.003,-0.0022,-0.0016,-0.0008,0.0004,0.0011,0.0022,0.0032,0.0049,0.0056,0.0067,0.0067,0.0074,0.0069,0.0067,0.0067,0.0067,0.0068,0.0075,0.0075,0.0075,0.0075,0,-0.0066,-0.0062,-0.0051,-0.0038,-0.0029,-0.0019,-0.0009,-0.0003,0.0005,0.0013,0.0025,0.0033,0.0047,0.0058,0.0069,0.0074,0.0076,0.0076,0.0078,0.0077,0.0075,0.0076,0.0058,0.0076,0.0076,0.0076,0.0076,0.0076,-0.0057,-0.0049,-0.0037,-0.0024,-0.0016,-0.0007,0.0002,0.0009,0.002,0.0033,0.0036,0.0048,0.0058,0.0073,0.0078,0.0088,0.0086,0.0089,0.009,0.0091,0.0091,0.0074,0.0089,0.0089,0.0089,0.0089,0.0089,0,-0.0043,-0.0035,-0.0024,-0.0009,0.0,0.0002,0.0013,0.002,0.0032,0.0041,0.0051,0.0064,0.0075,0.0083,0.0093,0.0099,0.01,0.0102,0.0101,0.0103,0.0091,0.0089,0.0101,0.0101,0.0101,0.0101,0.0101,0.0101,-0.0035,-0.002,-0.0015,0.0003,0.0011,0.0024,0.003,0.0038,0.0046,0.0061,0.0071,0.0076,0.0085,0.0096,0.0106,0.0108,0.0111,0.0113,0.0115,0.0105,0.0103,0.0102,0.01,0.0114,0.0114,0.0126,0.0126,0.0126]},{"header":{"parameterUnit":"m.s-1","parameterCategory":1,"la1":30.2991,"la2":30.254,"lo1":-89.0895,"lo2":-89.0444,"dy":0.0017,"dx":0.0017,"nx":28,"ny":28,"refTime":"2024-04-01T21:00:00:Z","depth":0,"parameterNumber":3,"parameterNumberName":"V-component_of_WINDS"},"data":[0,0,0,0,0,0,0,0,0,0,0,0,0,0,0,0,0,0,0,0,0,0,0,0,0,0,0,0,0,0,0,0,0,0,0,0,0,0,0,0,0,0,0,0,0,0,0,0,0,0,0,0,0,0,0,0,0,0,6.5386,6.5388,0,6.5516,6.5518,6.5519,6.5494,6.5492,6.5489,6.5487,6.5612,6.5617,6.5623,0,0,0,0,0,0,0,0,0,0,0,0,0,6.5109,6.5114,6.5386,6.5388,6.5389,6.5516,6.5518,6.552,6.5494,6.5492,6.5489,6.5486,6.561,6.5617,6.5623,0,0,0,0,0,0,0,0,0,0,0,0,0,6.5233,6.5116,6.5386,6.5392,6.5394,6.5516,6.5518,6.552,6.5495,6.5492,6.5488,6.5485,6.5608,6.5616,6.5624,6.5745,0,0,6.5649,6.5653,0,0,0,0,0,0,0,0,6.5226,6.5243,6.539,6.5392,6.5394,6.5486,6.5466,6.5595,6.5496,6.5457,6.5487,6.5483,6.5572,6.5583,6.5615,6.575,6.5756,6.565,6.5655,6.5659,6.5661,0,0,0,0,0,0,0,6.5217,6.5237,6.5437,6.5392,6.5395,6.5386,6.54,6.549,6.5532,6.546,6.5458,6.5474,6.5573,6.5607,6.5618,6.5758,6.565,6.5657,6.5662,6.5665,6.6,6.6003,0,0,0,0,0,0,6.5208,6.523,6.5433,6.5441,6.53,6.5394,6.541,6.546,6.5531,6.5539,6.5477,6.5473,6.5595,6.5608,6.5622,6.5769,6.5658,6.5666,6.5671,6.5996,6.6,6.6005,0,0,0,0,0,0,6.5202,6.5226,6.5428,6.5336,6.5361,6.5403,6.5459,6.5464,6.5499,6.5544,6.5551,6.5505,6.5592,6.561,6.5715,6.5773,6.567,6.5677,6.5991,6.5997,6.6003,6.6064,0,0,0,0,0,0,6.5194,6.5224,6.5272,6.5337,6.5366,6.5522,6.5463,6.5469,6.5514,6.5509,6.5572,6.5579,6.5591,6.5703,6.5723,6.5782,6.5684,6.5986,6.5994,6.6001,6.6057,6.6071,6.6083,0,0,0,0,0,6.5184,6.5282,6.5275,6.5299,6.5427,6.5525,6.5541,6.5555,6.5519,6.5566,6.5596,6.5577,6.5763,6.5714,6.5737,6.5799,6.5982,6.5992,6.6,6.6051,6.6068,6.6083,0,0,0,0,0,0,6.5219,6.529,6.5283,6.5405,6.546,6.5521,6.5581,6.5573,6.5636,6.5629,6.5641,6.5655,6.5762,6.5791,6.5735,6.592,6.5867,6.5881,6.5898,6.5915,6.5928,6.5919,6.5691,0,0,0,0,0,6.5242,6.5318,6.5375,6.5477,6.5505,6.5539,6.5581,6.5588,6.5643,6.5666,6.5703,6.5755,6.5825,6.5871,6.5938,6.606,6.6073,6.6114,6.6127,6.6138,6.615,6.6217,6.6236,6.6034,6.6034,6.6034,0,0,6.5288,6.5336,6.5383,6.5485,6.5528,6.5605,6.5558,6.564,6.5697,6.5677,6.578,6.5809,6.5868,6.5982,6.6034,6.6009,6.6209,6.6149,6.6157,6.6164,6.6228,6.6247,6.6264,6.604,6.6039,6.6038,0,0,6.5412,6.5456,6.5547,6.5592,6.5659,6.5681,6.5702,6.5765,6.5785,6.5889,6.5876,6.5941,6.6062,6.6106,6.6143,6.6285,6.6271,6.6306,6.6376,6.6441,6.6457,6.6471,6.6523,6.6541,6.6318,6.6318,6.6318,0,6.546,6.5578,6.5594,6.5679,6.5725,6.5713,6.5804,6.5846,6.593,6.596,6.5931,6.6084,6.6123,6.6248,6.6283,6.6313,6.6338,6.63,6.6454,6.6468,6.6482,6.6531,6.655,6.6322,6.6322,6.6321,6.6321,0,6.5634,6.5716,6.5781,6.5867,6.5919,6.6007,6.6034,6.6085,6.6086,6.6111,6.6216,6.6263,6.634,6.637,6.637,6.6495,6.6478,6.6451,6.6399,6.6505,6.6552,6.657,6.6328,6.6326,6.6325,6.6324,0,0,6.5784,6.5879,6.5903,6.5942,6.6016,6.6078,6.6164,6.6243,6.6287,6.6344,6.6417,6.652,6.6497,6.654,6.6546,6.6603,6.6714,6.657,6.6571,6.6596,6.6855,6.6875,6.6897,6.6705,6.6708,6.6711,6.685,0,6.5916,6.6073,6.609,6.6229,6.6305,6.6295,6.6371,6.6423,6.6448,6.6514,6.6539,6.6614,6.6577,6.6603,6.6659,6.6689,6.6766,6.6678,6.6771,6.6774,6.6758,6.6921,6.6943,6.7072,6.6868,6.6871,6.6874,0,6.609,6.6158,6.6306,6.6371,6.6403,6.6471,6.6545,6.6609,6.6667,6.6681,6.673,6.6729,6.6816,6.676,6.688,6.6821,6.6859,6.6879,6.6884,6.6894,6.6831,6.6936,6.7113,6.7133,6.6902,6.69,6.6898,0,6.6187,6.6314,6.6419,6.6453,6.6531,6.6579,6.6613,6.6668,6.6715,6.6778,6.6808,6.688,6.6919,6.6973,6.6991,6.6948,6.7111,6.7055,6.7124,6.7124,6.7159,6.7157,6.7346,6.7182,6.7182,6.7181,6.7181,0,6.6333,6.6424,6.6464,6.6529,6.663,6.6648,6.6747,6.6778,6.6827,6.6897,6.6891,6.6955,6.6974,6.7041,6.7054,6.7153,6.7169,6.7182,6.7185,6.7184,6.7183,6.721,6.7202,6.7187,6.7186,6.7185,6.7184,0,6.6458,6.6488,6.6603,6.6668,6.6687,6.6759,6.6813,6.6875,6.6899,6.6987,6.7008,6.7046,6.7125,6.7147,6.7241,6.725,6.7366,6.7359,6.7347,6.7348,6.7415,6.7409,6.763,6.766,6.7475,6.7476,6.7478,0,6.655,6.662,6.6694,6.6742,6.6779,6.6856,6.6904,6.6924,6.6974,6.7047,6.7099,6.7178,6.7243,6.7369,6.7403,6.7474,6.747,6.7543,6.7481,6.7478,6.7473,6.7469,6.7477,6.7554,6.7556,6.7558,6.7559,0,6.671,6.6723,6.6795,6.6873,6.6932,6.6993,6.7052,6.709,6.7118,6.7174,6.7257,6.7308,6.7405,6.7483,6.7556,6.7588,6.7579,6.7579,6.7598,6.7598,6.7589,6.7597,6.738,6.7573,6.7572,6.7571,6.757,6.757,6.6823,6.6886,6.6949,6.7029,6.7076,6.7132,6.7194,6.7227,6.7298,6.7381,6.7387,6.7477,6.7533,6.7631,6.7667,6.7736,6.7714,6.7742,6.775,6.7757,6.7763,6.7578,6.7748,6.7748,6.7748,6.7747,6.7747,0,6.6984,6.7025,6.7099,6.7184,6.7247,6.7235,6.73,6.7353,6.7433,6.7488,6.7552,6.7647,6.7723,6.7764,6.7839,6.7886,6.7884,6.7906,6.7903,6.791,6.7778,6.7754,6.7907,6.7907,6.7907,6.7906,6.7906,6.7906,6.7076,6.7183,6.7202,6.7332,6.737,6.7461,6.7499,6.755,6.7594,6.7702,6.7767,6.7794,6.7843,6.7922,6.7991,6.8,6.8028,6.8053,6.806,6.7936,6.792,6.7904,6.7882,6.8059,6.8059,6.8188,6.8189,6.819]}]]